sat.trackr.live / text

‹ back to catalog

STARLINK-2406

NORAD 47821 · 2021-018AL

PAYLOAD ACTIVE UNKNOWN

§ Identity

Operator
Country
US
Launch date
2021-03-11
Launch site
AFETR
Launch vehicle
Mass (kg)
RCS (m²)

Purposes: comms

External: N2YO · Heavens-Above · Gunter

§ Orbital elements

Epoch: 2026-05-24T16:01:22.261728Z

Period
94.01 min
Inclination
53.1576°
Eccentricity
0.0001178
Mean motion
15.31694661 rev/d
Perigee alt
469.9 km
Apogee alt
471.6 km
Semi-major
6,848.9 km
B*
3.0862e-7
RAAN
249.5419°
Arg perigee
92.1590°
Mean anomaly
267.9547°
Rev number
28,836

§ Raw data

STARLINK-24061 47821U 21018AL  26144.66761877 -.00000355  00000+0  30862-6 0  99972 47821  53.1576 249.5419 0001178  92.1590 267.9547 15.31694661288367

JSON: /api/v1/satellites/47821 · /tle

For live sub-satellite position, see the globe view (requires WebGL).

§ Visibility from observer

Set your observer location to see the next 7 days of passes ≥ 10°. The values pass through the URL so the page stays shareable.

No JS? Fill the form by hand. The geolocation button needs JavaScript.